| time (UTC) | temp F | wind direction | speed MPH | gust MPH | rain 1hr in | rain 24hr in | rain mn in | humidity % | barometer mb |
| 20260502235237 | 77 | 350 | 3.0 | 4.0 | 0.00 | 0.00 | 0.00 | 11 | 1014.7 |
| 20260502234732 | 78 | 336 | 5.0 | 6.0 | 0.00 | 0.00 | 0.00 | 11 | 1014.9 |
| 20260502234230 | 78 | 16 | 1.0 | 1.0 | 0.00 | 0.00 | 0.00 | 12 | 1014.9 |
| 20260502233726 | 77 | 45 | 1.0 | 1.0 | 0.00 | 0.00 | 0.00 | 12 | 1014.8 |
| 20260502233223 | 78 | 21 | 0.0 | 1.0 | 0.00 | 0.00 | 0.00 | 11 | 1014.9 |
| 20260502232718 | 80 | 6 | 0.0 | 0.0 | 0.00 | 0.00 | 0.00 | 11 | 1015.0 |
| 20260502232216 | 78 | 30 | 1.0 | 2.0 | 0.00 | 0.00 | 0.00 | 11 | 1015.0 |
| 20260502231712 | 78 | 20 | 1.0 | 2.0 | 0.00 | 0.00 | 0.00 | 11 | 1014.9 |
| 20260502231210 | 77 | 38 | 2.0 | 4.0 | 0.00 | 0.00 | 0.00 | 11 | 1015.0 |
| 20260502230709 | 78 | 56 | 4.0 | 4.0 | 0.00 | 0.00 | 0.00 | 11 | 1014.9 |
| 20260502230207 | 78 | 34 | 0.0 | 0.0 | 0.00 | 0.00 | 0.00 | 11 | 1015.0 |
| 20260502225702 | 81 | 11 | 1.0 | 2.0 | 0.00 | 0.00 | 0.00 | 10 | 1015.1 |
| 20260502225200 | 80 | 38 | 0.0 | 0.0 | 0.00 | 0.00 | 0.00 | 10 | 1015.1 |
| 20260502224655 | 82 | 98 | 1.0 | 2.0 | 0.00 | 0.00 | 0.00 | 10 | 1015.5 |
| 20260502224152 | 80 | 67 | 1.0 | 2.0 | 0.00 | 0.00 | 0.00 | 11 | 1015.5 |
| 20260502223650 | 80 | 40 | 2.0 | 2.0 | 0.00 | 0.00 | 0.00 | 11 | 1015.6 |
| 20260502223148 | 79 | 75 | 1.0 | 2.0 | 0.00 | 0.00 | 0.00 | 11 | 1015.7 |
| 20260502222646 | 78 | 41 | 2.0 | 3.0 | 0.00 | 0.00 | 0.00 | 11 | 1015.6 |
| 20260502222142 | 79 | 58 | 1.0 | 1.0 | 0.00 | 0.00 | 0.00 | 11 | 1015.6 |
| 20260502221637 | 80 | 97 | 3.0 | 4.0 | 0.00 | 0.00 | 0.00 | 11 | 1015.9 |
| 20260502221135 | 79 | 60 | 2.0 | 2.0 | 0.00 | 0.00 | 0.00 | 10 | 1015.8 |
| 20260502220631 | 82 | 21 | 0.0 | 1.0 | 0.00 | 0.00 | 0.00 | 10 | 1015.8 |
| 20260502220127 | 80 | 29 | 0.0 | 0.0 | 0.00 | 0.00 | 0.00 | 10 | 1015.8 |
| 20260502215625 | 79 | 18 | 2.0 | 2.0 | 0.00 | 0.00 | 0.00 | 10 | 1016.1 |
| 20260502215121 | 81 | 95 | 3.0 | 3.0 | 0.00 | 0.00 | 0.00 | 10 | 1016.1 |
| 20260502214619 | 82 | 274 | 1.0 | 2.0 | 0.00 | 0.00 | 0.00 | 10 | 1016.2 |
| 20260502214116 | 81 | 343 | 1.0 | 2.0 | 0.00 | 0.00 | 0.00 | 10 | 1016.3 |
| 20260502213613 | 80 | 244 | 1.0 | 3.0 | 0.00 | 0.00 | 0.00 | 10 | 1016.6 |
| 20260502213110 | 80 | 45 | 1.0 | 2.0 | 0.00 | 0.00 | 0.00 | 10 | 1016.6 |
| 20260502212609 | 79 | 58 | 2.0 | 3.0 | 0.00 | 0.00 | 0.00 | 10 | 1016.6 |
| 20260502212107 | 78 | 75 | 4.0 | 6.0 | 0.00 | 0.00 | 0.00 | 10 | 1016.6 |
| 20260502211602 | 77 | 37 | 0.0 | 1.0 | 0.00 | 0.00 | 0.00 | 10 | 1016.7 |
| 20260502211059 | 77 | 57 | 4.0 | 6.0 | 0.00 | 0.00 | 0.00 | 10 | 1016.6 |
| 20260502210556 | 78 | 112 | 3.0 | 4.0 | 0.00 | 0.00 | 0.00 | 11 | 1016.8 |
| 20260502210054 | 78 | 61 | 1.0 | 2.0 | 0.00 | 0.00 | 0.00 | 11 | 1016.9 |
| 20260502205550 | 78 | 42 | 0.0 | 1.0 | 0.00 | 0.00 | 0.00 | 11 | 1016.9 |
| 20260502205047 | 78 | 126 | 7.0 | 9.0 | 0.00 | 0.00 | 0.00 | 12 | 1017.1 |
| 20260502204544 | 78 | 89 | 4.0 | 6.0 | 0.00 | 0.00 | 0.00 | 12 | 1017.0 |
| 20260502204042 | 78 | 84 | 2.0 | 2.0 | 0.00 | 0.00 | 0.00 | 13 | 1017.1 |
| 20260502203538 | 79 | 314 | 2.0 | 3.0 | 0.00 | 0.00 | 0.00 | 13 | 1017.1 |
| 20260502203035 | 79 | 359 | 1.0 | 2.0 | 0.00 | 0.00 | 0.00 | 13 | 1017.0 |
| 20260502202531 | 78 | 5 | 3.0 | 4.0 | 0.00 | 0.00 | 0.00 | 14 | 1017.3 |
| 20260502202030 | 78 | 162 | 7.0 | 8.0 | 0.00 | 0.00 | 0.00 | 14 | 1017.2 |
| 20260502201525 | 78 | 120 | 6.0 | 9.0 | 0.00 | 0.00 | 0.00 | 14 | 1017.2 |
| 20260502201022 | 78 | 175 | 4.0 | 7.0 | 0.00 | 0.00 | 0.00 | 12 | 1017.3 |
| 20260502200518 | 77 | 101 | 8.0 | 10.0 | 0.00 | 0.00 | 0.00 | 13 | 1017.2 |
| 20260502200016 | 77 | 93 | 6.0 | 8.0 | 0.00 | 0.00 | 0.00 | 12 | 1017.2 |
| 20260502195514 | 76 | 112 | 5.0 | 8.0 | 0.00 | 0.00 | 0.00 | 15 | 1017.4 |
| 20260502195009 | 76 | 80 | 5.0 | 7.0 | 0.00 | 0.00 | 0.00 | 16 | 1017.5 |
| 20260502194506 | 76 | 124 | 5.0 | 8.0 | 0.00 | 0.00 | 0.00 | 14 | 1017.5 |
| 20260502194002 | 76 | 228 | 7.0 | 9.0 | 0.00 | 0.00 | 0.00 | 14 | 1017.8 |
| 20260502193500 | 76 | 104 | 5.0 | 8.0 | 0.00 | 0.00 | 0.00 | 14 | 1017.5 |
| 20260502192955 | 76 | 160 | 5.0 | 7.0 | 0.00 | 0.00 | 0.00 | 14 | 1017.7 |
| 20260502192452 | 76 | 201 | 6.0 | 10.0 | 0.00 | 0.00 | 0.00 | 15 | 1018.0 |
| 20260502191949 | 78 | 88 | 4.0 | 7.0 | 0.00 | 0.00 | 0.00 | 16 | 1017.8 |
| 20260502191447 | 77 | 338 | 3.0 | 6.0 | 0.00 | 0.00 | 0.00 | 15 | 1017.9 |
| 20260502190944 | 76 | 120 | 6.0 | 7.0 | 0.00 | 0.00 | 0.00 | 15 | 1017.9 |
| 20260502190441 | 75 | 99 | 5.0 | 7.0 | 0.00 | 0.00 | 0.00 | 15 | 1018.1 |
| 20260502185938 | 75 | 353 | 2.0 | 4.0 | 0.00 | 0.00 | 0.00 | 16 | 1018.3 |
| 20260502185433 | 75 | 128 | 5.0 | 8.0 | 0.00 | 0.00 | 0.00 | 17 | 1018.1 |
| 20260502184930 | 75 | 195 | 4.0 | 7.0 | 0.00 | 0.00 | 0.00 | 17 | 1018.3 |
| 20260502184425 | 74 | 33 | 3.0 | 4.0 | 0.00 | 0.00 | 0.00 | 17 | 1018.5 |
| 20260502183922 | 75 | 89 | 8.0 | 10.0 | 0.00 | 0.00 | 0.00 | 16 | 1018.2 |
| 20260502183419 | 75 | 117 | 2.0 | 3.0 | 0.00 | 0.00 | 0.00 | 16 | 1018.3 |
| 20260502182914 | 75 | 144 | 5.0 | 6.0 | 0.00 | 0.00 | 0.00 | 14 | 1018.5 |
| 20260502182410 | 74 | 50 | 4.0 | 4.0 | 0.00 | 0.00 | 0.00 | 15 | 1018.6 |
| 20260502181906 | 74 | 123 | 3.0 | 3.0 | 0.00 | 0.00 | 0.00 | 15 | 1018.8 |
| 20260502181405 | 73 | 99 | 5.0 | 8.0 | 0.00 | 0.00 | 0.00 | 17 | 1018.8 |
| 20260502180903 | 73 | 99 | 3.0 | 3.0 | 0.00 | 0.00 | 0.00 | 17 | 1018.9 |
| 20260502180359 | 73 | 135 | 5.0 | 7.0 | 0.00 | 0.00 | 0.00 | 17 | 1018.5 |
| 20260502170318 | 70 | 114 | 4.0 | 4.0 | 0.00 | 0.00 | 0.00 | 23 | 1018.9 |
| 20260502164306 | 68 | 89 | 4.0 | 8.0 | 0.00 | 0.00 | 0.00 | 24 | 1019.2 |
| 20260502163801 | 67 | 54 | 6.0 | 9.0 | 0.00 | 0.00 | 0.00 | 25 | 1019.1 |
| 20260502163258 | 67 | 103 | 6.0 | 8.0 | 0.00 | 0.00 | 0.00 | 25 | 1019.0 |
| 20260502162755 | 65 | 132 | 6.0 | 10.0 | 0.00 | 0.00 | 0.00 | 26 | 1019.0 |
| 20260502162252 | 65 | 103 | 6.0 | 10.0 | 0.00 | 0.00 | 0.00 | 25 | 1019.2 |
| 20260502161749 | 64 | 166 | 4.0 | 6.0 | 0.00 | 0.00 | 0.00 | 26 | 1019.2 |
| 20260502161245 | 63 | 112 | 5.0 | 7.0 | 0.00 | 0.00 | 0.00 | 27 | 1019.3 |
| 20260502160743 | 62 | 75 | 2.0 | 2.0 | 0.00 | 0.00 | 0.00 | 30 | 1019.4 |
| 20260502160242 | 61 | 99 | 4.0 | 4.0 | 0.00 | 0.00 | 0.00 | 31 | 1019.5 |
| 20260502152212 | 55 | 65 | 4.0 | 4.0 | 0.00 | 0.00 | 0.00 | 38 | 1019.7 |
| 20260502151709 | 55 | 150 | 4.0 | 6.0 | 0.00 | 0.00 | 0.00 | 38 | 1019.7 |
| 20260502151206 | 54 | 83 | 5.0 | 7.0 | 0.00 | 0.00 | 0.00 | 39 | 1019.7 |
| 20260502150703 | 54 | 90 | 3.0 | 4.0 | 0.00 | 0.00 | 0.00 | 39 | 1019.7 |
| 20260502150159 | 54 | 90 | 3.0 | 4.0 | 0.00 | 0.00 | 0.00 | 39 | 1019.6 |
| 20260502140123 | 51 | 40 | 5.0 | 9.0 | 0.00 | 0.00 | 0.00 | 41 | 1019.7 |
| 20260502130548 | 53 | 52 | 2.0 | 4.0 | 0.00 | 0.00 | 0.00 | 34 | 1018.6 |
| 20260502123531 | 52 | 80 | 5.0 | 8.0 | 0.00 | 0.00 | 0.00 | 36 | 1018.8 |
| 20260502123028 | 51 | 113 | 6.0 | 8.0 | 0.00 | 0.00 | 0.00 | 37 | 1018.9 |
| 20260502122524 | 50 | 89 | 3.0 | 4.0 | 0.00 | 0.00 | 0.00 | 38 | 1018.9 |
| 20260502122022 | 50 | 116 | 6.0 | 8.0 | 0.00 | 0.00 | 0.00 | 38 | 1019.1 |
| 20260502121519 | 50 | 50 | 3.0 | 4.0 | 0.00 | 0.00 | 0.00 | 39 | 1019.0 |
| 20260502121017 | 50 | 177 | 2.0 | 2.0 | 0.00 | 0.00 | 0.00 | 39 | 1019.1 |
| 20260502120513 | 48 | 23 | 3.0 | 6.0 | 0.00 | 0.00 | 0.00 | 39 | 1018.6 |
| 20260502115508 | 48 | 358 | 0.0 | 0.0 | 0.00 | 0.00 | 0.00 | 44 | 1019.1 |
| 20260502115003 | 47 | 103 | 1.0 | 3.0 | 0.00 | 0.00 | 0.00 | 45 | 1019.0 |
| 20260502114500 | 45 | 67 | 0.0 | 1.0 | 0.00 | 0.00 | 0.00 | 47 | 1018.9 |
| 20260502113957 | 45 | 39 | 0.0 | 0.0 | 0.00 | 0.00 | 0.00 | 49 | 1018.9 |
| 20260502113454 | 45 | 26 | 0.0 | 0.0 | 0.00 | 0.00 | 0.00 | 49 | 1019.0 |
| 20260502112953 | 45 | 15 | 0.0 | 0.0 | 0.00 | 0.00 | 0.00 | 49 | 1019.1 |
| 20260502112450 | 46 | 38 | 1.0 | 1.0 | 0.00 | 0.00 | 0.00 | 49 | 1019.1 |
| 20260502111948 | 46 | 47 | 0.0 | 0.0 | 0.00 | 0.00 | 0.00 | 48 | 1019.0 |
| 20260502111445 | 46 | 11 | 0.0 | 0.0 | 0.00 | 0.00 | 0.00 | 48 | 1019.0 |
| 20260502110942 | 46 | 87 | 3.0 | 4.0 | 0.00 | 0.00 | 0.00 | 47 | 1019.1 |
| 20260502110440 | 47 | 45 | 1.0 | 1.0 | 0.00 | 0.00 | 0.00 | 47 | 1019.0 |
| 20260502105937 | 46 | 98 | 2.0 | 2.0 | 0.00 | 0.00 | 0.00 | 47 | 1019.1 |
| 20260502105434 | 46 | 34 | 0.0 | 0.0 | 0.00 | 0.00 | 0.00 | 48 | 1019.1 |
| 20260502104932 | 46 | 45 | 1.0 | 2.0 | 0.00 | 0.00 | 0.00 | 49 | 1019.1 |
| 20260502104429 | 46 | 21 | 0.0 | 1.0 | 0.00 | 0.00 | 0.00 | 50 | 1019.2 |
| 20260502103926 | 46 | 345 | 0.0 | 0.0 | 0.00 | 0.00 | 0.00 | 52 | 1019.3 |
| 20260502103424 | 46 | 357 | 1.0 | 1.0 | 0.00 | 0.00 | 0.00 | 52 | 1019.2 |
| 20260502102920 | 45 | 33 | 0.0 | 0.0 | 0.00 | 0.00 | 0.00 | 54 | 1019.0 |
| 20260502102417 | 46 | 33 | 0.0 | 0.0 | 0.00 | 0.00 | 0.00 | 52 | 1019.2 |
| 20260502101915 | 47 | 33 | 0.0 | 0.0 | 0.00 | 0.00 | 0.00 | 50 | 1019.0 |
| 20260502101413 | 47 | 33 | 0.0 | 0.0 | 0.00 | 0.00 | 0.00 | 48 | 1019.3 |
| 20260502100911 | 47 | 45 | 1.0 | 1.0 | 0.00 | 0.00 | 0.00 | 49 | 1019.3 |
| 20260502100410 | 47 | 30 | 0.0 | 0.0 | 0.00 | 0.00 | 0.00 | 48 | 1019.4 |
| 20260502091343 | 48 | 5 | 0.0 | 0.0 | 0.00 | 0.00 | 0.00 | 48 | 1019.3 |
| 20260502090841 | 47 | 1 | 0.0 | 1.0 | 0.00 | 0.00 | 0.00 | 49 | 1019.5 |
| 20260502090338 | 48 | 355 | 1.0 | 1.0 | 0.00 | 0.00 | 0.00 | 49 | 1019.5 |
| 20260502071233 | 51 | 21 | 0.0 | 0.0 | 0.00 | 0.00 | 0.00 | 44 | 1019.5 |
| 20260502070731 | 51 | 22 | 0.0 | 0.0 | 0.00 | 0.00 | 0.00 | 43 | 1019.6 |
| 20260502070228 | 51 | 17 | 0.0 | 0.0 | 0.00 | 0.00 | 0.00 | 44 | 1019.4 |
| 20260502065726 | 51 | 17 | 0.0 | 0.0 | 0.00 | 0.00 | 0.00 | 45 | 1019.4 |
| 20260502065224 | 51 | 17 | 0.0 | 1.0 | 0.00 | 0.00 | 0.00 | 45 | 1019.5 |
| 20260502064723 | 51 | 16 | 0.0 | 0.0 | 0.00 | 0.00 | 0.00 | 45 | 1019.5 |
| 20260502064220 | 51 | 16 | 0.0 | 0.0 | 0.00 | 0.00 | 0.00 | 45 | 1019.4 |
| 20260502063717 | 51 | 17 | 0.0 | 1.0 | 0.00 | 0.00 | 0.00 | 44 | 1019.5 |
| 20260502063215 | 51 | 15 | 1.0 | 1.0 | 0.00 | 0.00 | 0.00 | 44 | 1019.4 |
| 20260502062712 | 51 | 15 | 0.0 | 0.0 | 0.00 | 0.00 | 0.00 | 44 | 1019.6 |
| 20260502062209 | 52 | 16 | 0.0 | 0.0 | 0.00 | 0.00 | 0.00 | 43 | 1019.4 |
| 20260502061708 | 52 | 16 | 0.0 | 1.0 | 0.00 | 0.00 | 0.00 | 42 | 1019.7 |
| 20260502061205 | 52 | 18 | 0.0 | 1.0 | 0.00 | 0.00 | 0.00 | 42 | 1019.5 |
| 20260502060700 | 52 | 19 | 0.0 | 0.0 | 0.00 | 0.00 | 0.00 | 42 | 1019.5 |
| 20260502060151 | 53 | 18 | 1.0 | 1.0 | 0.00 | 0.00 | 0.00 | 41 | 1019.7 |
| 20260502055649 | 52 | 14 | 2.0 | 2.0 | 0.00 | 0.00 | 0.00 | 42 | 1019.5 |
| 20260502055147 | 53 | 15 | 2.0 | 2.0 | 0.00 | 0.00 | 0.00 | 42 | 1019.6 |
| 20260502054646 | 53 | 17 | 1.0 | 2.0 | 0.00 | 0.00 | 0.00 | 42 | 1019.7 |
| 20260502054143 | 53 | 13 | 0.0 | 0.0 | 0.00 | 0.00 | 0.00 | 42 | 1019.5 |
| 20260502053640 | 54 | 14 | 1.0 | 1.0 | 0.00 | 0.00 | 0.00 | 42 | 1019.6 |
| 20260502053137 | 54 | 24 | 0.0 | 1.0 | 0.00 | 0.00 | 0.00 | 41 | 1019.4 |
| 20260502052635 | 54 | 15 | 1.0 | 1.0 | 0.00 | 0.00 | 0.00 | 42 | 1019.4 |
| 20260502052133 | 54 | 14 | 2.0 | 2.0 | 0.00 | 0.00 | 0.00 | 42 | 1019.4 |
| 20260502051631 | 53 | 14 | 1.0 | 1.0 | 0.00 | 0.00 | 0.00 | 42 | 1019.4 |
| 20260502051129 | 53 | 18 | 2.0 | 2.0 | 0.00 | 0.00 | 0.00 | 43 | 1019.3 |
| 20260502050625 | 54 | 15 | 2.0 | 2.0 | 0.00 | 0.00 | 0.00 | 43 | 1019.6 |
| 20260502050122 | 54 | 29 | 2.0 | 2.0 | 0.00 | 0.00 | 0.00 | 42 | 1019.6 |
| 20260502045618 | 54 | 32 | 2.0 | 3.0 | 0.00 | 0.00 | 0.00 | 42 | 1019.5 |
| 20260502045115 | 54 | 22 | 3.0 | 3.0 | 0.00 | 0.00 | 0.00 | 42 | 1019.7 |
| 20260502044612 | 55 | 15 | 3.0 | 4.0 | 0.00 | 0.00 | 0.00 | 42 | 1019.5 |
| 20260502044109 | 55 | 20 | 1.0 | 1.0 | 0.00 | 0.00 | 0.00 | 42 | 1019.4 |
| 20260502043607 | 55 | 15 | 1.0 | 2.0 | 0.00 | 0.00 | 0.00 | 41 | 1019.5 |
| 20260502043103 | 55 | 16 | 1.0 | 1.0 | 0.00 | 0.00 | 0.00 | 42 | 1019.6 |
| 20260502042602 | 56 | 17 | 1.0 | 2.0 | 0.00 | 0.00 | 0.00 | 42 | 1019.4 |
| 20260502042100 | 56 | 24 | 0.0 | 0.0 | 0.00 | 0.00 | 0.00 | 42 | 1019.6 |
| 20260502041558 | 56 | 18 | 1.0 | 2.0 | 0.00 | 0.00 | 0.00 | 42 | 1019.3 |
| 20260502041054 | 57 | 12 | 0.0 | 1.0 | 0.00 | 0.00 | 0.00 | 41 | 1019.4 |
| 20260502040551 | 57 | 11 | 0.0 | 0.0 | 0.00 | 0.00 | 0.00 | 40 | 1019.3 |
| 20260502040048 | 58 | 16 | 1.0 | 2.0 | 0.00 | 0.00 | 0.00 | 39 | 1019.4 |
| 20260502035544 | 59 | 14 | 1.0 | 2.0 | 0.00 | 0.00 | 0.00 | 38 | 1019.3 |
| 20260502035042 | 59 | 14 | 1.0 | 2.0 | 0.00 | 0.00 | 0.00 | 37 | 1019.4 |
| 20260502034540 | 59 | 19 | 0.0 | 0.0 | 0.00 | 0.00 | 0.00 | 35 | 1019.2 |
| 20260502034038 | 60 | 19 | 0.0 | 0.0 | 0.00 | 0.00 | 0.00 | 32 | 1019.2 |
| 20260502033536 | 61 | 13 | 0.0 | 0.0 | 0.00 | 0.00 | 0.00 | 30 | 1019.2 |
| 20260502033033 | 62 | 12 | 0.0 | 0.0 | 0.00 | 0.00 | 0.00 | 28 | 1019.3 |
| 20260502032528 | 63 | 18 | 0.0 | 0.0 | 0.00 | 0.00 | 0.00 | 27 | 1019.1 |
| 20260502032026 | 63 | 18 | 0.0 | 0.0 | 0.00 | 0.00 | 0.00 | 26 | 1019.1 |
| 20260502031523 | 64 | 18 | 0.0 | 0.0 | 0.00 | 0.00 | 0.00 | 24 | 1019.1 |
| 20260502031021 | 64 | 18 | 0.0 | 0.0 | 0.00 | 0.00 | 0.00 | 23 | 1019.0 |
| 20260502030520 | 65 | 18 | 0.0 | 0.0 | 0.00 | 0.00 | 0.00 | 22 | 1019.0 |
| 20260502030017 | 66 | 1 | 0.0 | 0.0 | 0.00 | 0.00 | 0.00 | 20 | 1018.9 |
| 20260502025514 | 67 | 341 | 0.0 | 0.0 | 0.00 | 0.00 | 0.00 | 18 | 1019.0 |
| 20260502025012 | 68 | 341 | 0.0 | 0.0 | 0.00 | 0.00 | 0.00 | 18 | 1019.0 |
| 20260502024509 | 69 | 319 | 1.0 | 2.0 | 0.00 | 0.00 | 0.00 | 18 | 1019.1 |
| 20260502024008 | 69 | 340 | 1.0 | 1.0 | 0.00 | 0.00 | 0.00 | 18 | 1018.9 |
| 20260502023505 | 70 | 319 | 1.0 | 1.0 | 0.00 | 0.00 | 0.00 | 18 | 1018.9 |
| 20260502023002 | 70 | 327 | 1.0 | 1.0 | 0.00 | 0.00 | 0.00 | 17 | 1018.9 |
| 20260502022459 | 71 | 355 | 1.0 | 1.0 | 0.00 | 0.00 | 0.00 | 17 | 1018.8 |
| 20260502021956 | 71 | 341 | 1.0 | 1.0 | 0.00 | 0.00 | 0.00 | 17 | 1019.0 |
| 20260502021453 | 72 | 343 | 1.0 | 1.0 | 0.00 | 0.00 | 0.00 | 17 | 1019.0 |
| 20260502020950 | 73 | 344 | 1.0 | 2.0 | 0.00 | 0.00 | 0.00 | 17 | 1019.0 |
| 20260502020448 | 73 | 2 | 1.0 | 1.0 | 0.00 | 0.00 | 0.00 | 16 | 1018.8 |
| 20260502015944 | 73 | 319 | 1.0 | 1.0 | 0.00 | 0.00 | 0.00 | 16 | 1018.9 |
| 20260502015442 | 73 | 353 | 1.0 | 2.0 | 0.00 | 0.00 | 0.00 | 16 | 1018.8 |
| 20260502014939 | 74 | 321 | 0.0 | 1.0 | 0.00 | 0.00 | 0.00 | 15 | 1019.0 |
| 20260502014436 | 74 | 347 | 1.0 | 1.0 | 0.00 | 0.00 | 0.00 | 15 | 1018.9 |
| 20260502013932 | 74 | 198 | 1.0 | 2.0 | 0.00 | 0.00 | 0.00 | 16 | 1018.8 |
| 20260502013427 | 73 | 343 | 1.0 | 2.0 | 0.00 | 0.00 | 0.00 | 16 | 1019.0 |
| 20260502012924 | 74 | 25 | 0.0 | 0.0 | 0.00 | 0.00 | 0.00 | 15 | 1019.0 |
| 20260502012422 | 75 | 36 | 0.0 | 1.0 | 0.00 | 0.00 | 0.00 | 15 | 1019.0 |
| 20260502011919 | 75 | 18 | 0.0 | 0.0 | 0.00 | 0.00 | 0.00 | 15 | 1018.9 |
| 20260502011415 | 74 | 0 | 0.0 | 0.0 | 0.00 | 0.00 | 0.00 | 15 | 1019.0 |
| 20260502010913 | 76 | 357 | 0.0 | 1.0 | 0.00 | 0.00 | 0.00 | 15 | 1018.9 |
| 20260502010409 | 75 | 200 | 3.0 | 6.0 | 0.00 | 0.00 | 0.00 | 15 | 1018.9 |
| 20260502005906 | 75 | 351 | 1.0 | 1.0 | 0.00 | 0.00 | 0.00 | 15 | 1019.1 |
| 20260502005404 | 75 | 169 | 3.0 | 4.0 | 0.00 | 0.00 | 0.00 | 15 | 1019.1 |
| 20260502004901 | 77 | 358 | 0.0 | 1.0 | 0.00 | 0.00 | 0.00 | 15 | 1019.0 |
| 20260502004357 | 72 | 2 | 1.0 | 1.0 | 0.00 | 0.00 | 0.00 | 16 | 1018.9 |
| 20260502003855 | 74 | 7 | 0.0 | 1.0 | 0.00 | 0.00 | 0.00 | 15 | 1019.1 |
| 20260502003352 | 76 | 90 | 1.0 | 2.0 | 0.00 | 0.00 | 0.00 | 14 | 1019.0 |
| 20260502002848 | 77 | 58 | 1.0 | 3.0 | 0.00 | 0.00 | 0.00 | 14 | 1019.1 |
| 20260502002345 | 78 | 6 | 0.0 | 0.0 | 0.00 | 0.00 | 0.00 | 14 | 1019.0 |
| 20260502001842 | 77 | 345 | 2.0 | 2.0 | 0.00 | 0.00 | 0.00 | 15 | 1019.0 |
| 20260502001340 | 76 | 349 | 1.0 | 1.0 | 0.00 | 0.00 | 0.00 | 15 | 1019.1 |
| 20260502000837 | 77 | 115 | 4.0 | 7.0 | 0.00 | 0.00 | 0.00 | 15 | 1019.4 |
| 20260502000335 | 77 | 49 | 1.0 | 1.0 | 0.00 | 0.00 | 0.00 | 15 | 1019.1 |
| 20260501235831 | 75 | 191 | 2.0 | 3.0 | 0.00 | 0.00 | 0.00 | 15 | 1019.2 |
| 20260501235327 | 75 | 256 | 2.0 | 3.0 | 0.00 | 0.00 | 0.00 | 15 | 1019.2 |